Time,TemperatureF,DewpointF,PressureIn,WindDirection,WindDirectionDegrees,WindSpeedMPH,WindSpeedGustMPH,Humidity,HourlyPrecipIn,Conditions,Clouds,dailyrainin,SoftwareType,DateUTC
2013-02-17 00:00:00,31.4,28.5,29.92,North,350,0.0,3.0,89,0.00,,,0.15,Wunderground v.1.15,2013-02-17 05:00:00,
2013-02-17 00:05:00,31.3,28.2,29.92,WNW,292,0.0,3.0,88,0.00,,,0.15,Wunderground v.1.15,2013-02-17 05:05:00,
2013-02-17 00:10:00,31.2,27.8,29.92,North,5,0.0,3.0,87,0.00,,,0.15,Wunderground v.1.15,2013-02-17 05:10:00,
2013-02-17 00:15:00,31.2,27.2,29.92,North,360,0.0,3.0,85,0.00,,,0.15,Wunderground v.1.15,2013-02-17 05:15:00,
2013-02-17 00:20:00,31.1,26.8,29.92,NW,317,0.0,3.0,84,0.00,,,0.15,Wunderground v.1.15,2013-02-17 05:20:00,
2013-02-17 00:30:00,31.0,26.4,29.92,NNW,338,0.0,3.0,83,0.00,,,0.15,Wunderground v.1.15,2013-02-17 05:30:00,
2013-02-17 00:35:00,31.0,26.4,29.92,NW,321,0.0,3.0,83,0.00,,,0.15,Wunderground v.1.15,2013-02-17 05:35:00,
2013-02-17 00:40:00,30.9,26.1,29.93,NNW,331,0.0,3.0,82,0.00,,,0.15,Wunderground v.1.15,2013-02-17 05:40:00,
2013-02-17 00:45:00,30.9,25.8,29.93,NNW,346,0.0,3.0,81,0.00,,,0.15,Wunderground v.1.15,2013-02-17 05:45:00,
2013-02-17 00:50:00,30.9,25.5,29.93,North,11,0.0,4.0,80,0.00,,,0.15,Wunderground v.1.15,2013-02-17 05:50:00,
2013-02-17 00:55:00,30.8,25.1,29.93,NNE,15,0.0,4.0,79,0.00,,,0.15,Wunderground v.1.15,2013-02-17 05:55:00,
2013-02-17 01:00:00,30.8,25.1,29.93,WNW,296,0.0,3.0,79,0.00,,,0.15,Wunderground v.1.15,2013-02-17 06:00:00,
2013-02-17 01:05:00,30.8,25.1,29.94,WNW,296,0.0,3.0,79,0.00,,,0.15,Wunderground v.1.15,2013-02-17 06:05:00,
2013-02-17 01:10:00,30.8,25.1,29.94,WNW,296,0.0,3.0,79,0.00,,,0.15,Wunderground v.1.15,2013-02-17 06:10:00,
2013-02-17 01:15:00,30.8,25.4,29.94,WNW,296,0.0,3.0,80,0.00,,,0.15,Wunderground v.1.15,2013-02-17 06:15:00,
2013-02-17 01:25:00,30.7,25.6,29.94,NNW,336,0.0,3.0,81,0.00,,,0.15,Wunderground v.1.15,2013-02-17 06:25:00,
2013-02-17 01:30:00,30.7,25.6,29.94,NW,318,0.0,3.0,81,0.00,,,0.15,Wunderground v.1.15,2013-02-17 06:30:00,
2013-02-17 01:35:00,30.6,25.8,29.94,NW,318,0.0,3.0,82,0.00,,,0.15,Wunderground v.1.15,2013-02-17 06:35:00,
2013-02-17 01:40:00,30.5,25.7,29.95,NW,319,0.0,3.0,82,0.00,,,0.15,Wunderground v.1.15,2013-02-17 06:40:00,
2013-02-17 01:45:00,30.4,25.6,29.94,NW,317,0.0,3.0,82,0.00,,,0.15,Wunderground v.1.15,2013-02-17 06:45:00,
2013-02-17 01:50:00,30.3,25.5,29.95,NW,317,0.0,3.0,82,0.00,,,0.15,Wunderground v.1.15,2013-02-17 06:50:00,
2013-02-17 01:55:00,30.2,25.4,29.95,NW,317,0.0,3.0,82,0.00,,,0.15,Wunderground v.1.15,2013-02-17 06:55:00,
2013-02-17 02:00:00,30.1,25.3,29.95,NW,317,0.0,3.0,82,0.00,,,0.15,Wunderground v.1.15,2013-02-17 07:00:00,
2013-02-17 02:05:00,30.0,25.2,29.95,NW,310,0.0,3.0,82,0.00,,,0.15,Wunderground v.1.15,2013-02-17 07:05:00,
2013-02-17 02:10:00,29.9,24.8,29.95,NW,313,0.0,3.0,81,0.00,,,0.15,Wunderground v.1.15,2013-02-17 07:10:00,
2013-02-17 02:15:00,29.8,24.7,29.95,NW,313,0.0,3.0,81,0.00,,,0.15,Wunderground v.1.15,2013-02-17 07:15:00,
2013-02-17 02:20:00,29.7,24.6,29.95,NW,313,0.0,3.0,81,0.00,,,0.15,Wunderground v.1.15,2013-02-17 07:20:00,
2013-02-17 02:30:00,29.6,24.5,29.95,NW,313,0.0,3.0,81,0.00,,,0.15,Wunderground v.1.15,2013-02-17 07:30:00,
2013-02-17 02:35:00,29.5,24.4,29.95,NW,313,0.0,3.0,81,0.00,,,0.15,Wunderground v.1.15,2013-02-17 07:35:00,
2013-02-17 02:40:00,29.4,24.0,29.95,NW,313,0.0,3.0,80,0.00,,,0.15,Wunderground v.1.15,2013-02-17 07:40:00,
2013-02-17 02:45:00,29.3,23.9,29.96,NW,313,0.0,3.0,80,0.00,,,0.15,Wunderground v.1.15,2013-02-17 07:45:00,
2013-02-17 02:50:00,29.2,23.8,29.96,North,9,0.0,3.0,80,0.00,,,0.15,Wunderground v.1.15,2013-02-17 07:50:00,
2013-02-17 03:00:00,29.1,23.7,29.96,North,5,0.0,3.0,80,0.00,,,0.15,Wunderground v.1.15,2013-02-17 08:00:00,
2013-02-17 03:05:00,29.0,23.6,29.96,North,5,0.0,3.0,80,0.00,,,0.00,Wunderground v.1.15,2013-02-17 08:05:00,
2013-02-17 03:10:00,28.9,23.5,29.96,North,5,0.0,3.0,80,0.00,,,0.00,Wunderground v.1.15,2013-02-17 08:10:00,
2013-02-17 03:15:00,28.8,23.4,29.96,North,360,0.0,3.0,80,0.00,,,0.00,Wunderground v.1.15,2013-02-17 08:15:00,
2013-02-17 03:20:00,28.8,23.4,29.96,North,360,0.0,3.0,80,0.00,,,0.00,Wunderground v.1.15,2013-02-17 08:20:00,
2013-02-17 03:30:00,28.6,23.2,29.96,North,360,0.0,3.0,80,0.00,,,0.00,Wunderground v.1.15,2013-02-17 08:30:00,
2013-02-17 03:35:00,28.4,23.0,29.96,North,5,0.0,3.0,80,0.00,,,0.00,Wunderground v.1.15,2013-02-17 08:35:00,
2013-02-17 03:40:00,28.3,22.9,29.96,North,5,0.0,3.0,80,0.00,,,0.00,Wunderground v.1.15,2013-02-17 08:40:00,
2013-02-17 03:45:00,28.2,22.8,29.97,North,360,0.0,3.0,80,0.00,,,0.00,Wunderground v.1.15,2013-02-17 08:45:00,
2013-02-17 03:50:00,28.1,22.7,29.97,North,360,0.0,3.0,80,0.00,,,0.00,Wunderground v.1.15,2013-02-17 08:50:00,
2013-02-17 03:55:00,28.1,22.4,29.97,North,360,0.0,3.0,79,0.00,,,0.00,Wunderground v.1.15,2013-02-17 08:55:00,
2013-02-17 04:05:00,27.9,22.2,29.97,North,9,0.0,3.0,79,0.00,,,0.00,Wunderground v.1.15,2013-02-17 09:05:00,
2013-02-17 04:10:00,27.9,21.9,29.98,North,5,0.0,3.0,78,0.00,,,0.00,Wunderground v.1.15,2013-02-17 09:10:00,
2013-02-17 04:15:00,27.9,21.9,29.98,North,5,0.0,3.0,78,0.00,,,0.00,Wunderground v.1.15,2013-02-17 09:15:00,
2013-02-17 04:20:00,27.8,21.8,29.98,North,360,0.0,3.0,78,0.00,,,0.00,Wunderground v.1.15,2013-02-17 09:20:00,
2013-02-17 04:25:00,27.8,21.8,29.98,North,360,0.0,3.0,78,0.00,,,0.00,Wunderground v.1.15,2013-02-17 09:25:00,
2013-02-17 04:35:00,27.7,21.4,29.99,North,360,0.0,3.0,77,0.00,,,0.00,Wunderground v.1.15,2013-02-17 09:35:00,
2013-02-17 04:40:00,27.6,21.0,29.99,North,360,0.0,3.0,76,0.00,,,0.00,Wunderground v.1.15,2013-02-17 09:40:00,
2013-02-17 04:45:00,27.6,21.0,29.99,North,355,0.0,3.0,76,0.00,,,0.00,Wunderground v.1.15,2013-02-17 09:45:00,
2013-02-17 04:50:00,27.6,20.7,29.99,North,355,0.0,3.0,75,0.00,,,0.00,Wunderground v.1.15,2013-02-17 09:50:00,
2013-02-17 04:55:00,27.5,20.6,30.00,NNW,342,0.0,3.0,75,0.00,,,0.00,Wunderground v.1.15,2013-02-17 09:55:00,
2013-02-17 05:05:00,27.4,20.5,30.00,NNW,342,0.0,3.0,75,0.00,,,0.00,Wunderground v.1.15,2013-02-17 10:05:00,
2013-02-17 05:10:00,27.4,20.5,30.00,NNW,342,0.0,3.0,75,0.00,,,0.00,Wunderground v.1.15,2013-02-17 10:10:00,
2013-02-17 05:15:00,27.4,20.8,30.00,NNW,341,0.0,3.0,76,0.00,,,0.00,Wunderground v.1.15,2013-02-17 10:15:00,
2013-02-17 05:20:00,27.3,20.7,30.01,NNW,342,0.0,3.0,76,0.00,,,0.00,Wunderground v.1.15,2013-02-17 10:20:00,
2013-02-17 05:25:00,27.2,20.6,30.01,NNW,342,0.0,3.0,76,0.00,,,0.00,Wunderground v.1.15,2013-02-17 10:25:00,
2013-02-17 05:30:00,27.1,20.5,30.01,NNW,342,0.0,3.0,76,0.00,,,0.00,Wunderground v.1.15,2013-02-17 10:30:00,
2013-02-17 05:35:00,27.1,20.8,30.01,NNW,342,0.0,3.0,77,0.00,,,0.00,Wunderground v.1.15,2013-02-17 10:35:00,
2013-02-17 05:40:00,26.9,20.7,30.02,NNW,342,0.0,3.0,77,0.00,,,0.00,Wunderground v.1.15,2013-02-17 10:40:00,
2013-02-17 05:45:00,26.8,20.6,30.01,NNW,342,0.0,3.0,77,0.00,,,0.00,Wunderground v.1.15,2013-02-17 10:45:00,
2013-02-17 05:50:00,26.7,20.5,30.02,NNW,341,0.0,3.0,77,0.00,,,0.00,Wunderground v.1.15,2013-02-17 10:50:00,
2013-02-17 05:55:00,26.6,20.7,30.02,NNW,341,0.0,3.0,78,0.00,,,0.00,Wunderground v.1.15,2013-02-17 10:55:00,
2013-02-17 06:00:00,26.5,20.6,30.02,NNW,342,0.0,3.0,78,0.00,,,0.00,Wunderground v.1.15,2013-02-17 11:00:00,
2013-02-17 06:10:00,26.3,20.4,30.02,NNW,342,0.0,3.0,78,0.00,,,0.00,Wunderground v.1.15,2013-02-17 11:10:00,
2013-02-17 06:15:00,26.2,20.3,30.02,NNW,342,0.0,3.0,78,0.00,,,0.00,Wunderground v.1.15,2013-02-17 11:15:00,
2013-02-17 06:20:00,26.1,20.2,30.03,NNW,341,0.0,3.0,78,0.00,,,0.00,Wunderground v.1.15,2013-02-17 11:20:00,
2013-02-17 06:25:00,26.1,20.2,30.03,NNW,342,0.0,3.0,78,0.00,,,0.00,Wunderground v.1.15,2013-02-17 11:25:00,
2013-02-17 06:30:00,26.0,20.1,30.04,NNW,342,0.0,3.0,78,0.00,,,0.00,Wunderground v.1.15,2013-02-17 11:30:00,
2013-02-17 06:40:00,25.9,20.3,30.04,NNW,342,0.0,3.0,79,0.00,,,0.00,Wunderground v.1.15,2013-02-17 11:40:00,
2013-02-17 06:45:00,25.8,20.2,30.04,NNW,342,0.0,3.0,79,0.00,,,0.00,Wunderground v.1.15,2013-02-17 11:45:00,
2013-02-17 06:50:00,25.8,19.9,30.04,NNE,15,0.0,3.0,78,0.00,,,0.00,Wunderground v.1.15,2013-02-17 11:50:00,
2013-02-17 06:55:00,25.7,19.8,30.04,NNE,14,0.0,3.0,78,0.00,,,0.00,Wunderground v.1.15,2013-02-17 11:55:00,
2013-02-17 07:00:00,25.6,19.7,30.04,North,11,0.0,3.0,78,0.00,,,0.00,Wunderground v.1.15,2013-02-17 12:00:00,
2013-02-17 07:10:00,25.6,19.4,30.05,North,11,0.0,3.0,77,0.00,,,0.00,Wunderground v.1.15,2013-02-17 12:10:00,
2013-02-17 07:15:00,25.6,19.4,30.05,North,11,0.0,3.0,77,0.00,,,0.00,Wunderground v.1.15,2013-02-17 12:15:00,
2013-02-17 07:20:00,25.5,19.0,30.05,North,10,0.0,3.0,76,0.00,,,0.00,Wunderground v.1.15,2013-02-17 12:20:00,
2013-02-17 07:25:00,25.5,19.3,30.06,North,10,0.0,3.0,77,0.00,,,0.00,Wunderground v.1.15,2013-02-17 12:25:00,
2013-02-17 07:30:00,25.5,19.0,30.06,North,10,0.0,3.0,76,0.00,,,0.00,Wunderground v.1.15,2013-02-17 12:30:00,
2013-02-17 07:35:00,25.5,19.0,30.06,North,10,0.0,3.0,76,0.00,,,0.00,Wunderground v.1.15,2013-02-17 12:35:00,
2013-02-17 07:45:00,25.6,19.1,30.06,North,10,0.0,3.0,76,0.00,,,0.00,Wunderground v.1.15,2013-02-17 12:45:00,
2013-02-17 07:50:00,25.6,19.1,30.07,North,10,0.0,3.0,76,0.00,,,0.00,Wunderground v.1.15,2013-02-17 12:50:00,
2013-02-17 07:55:00,25.7,19.2,30.07,North,11,0.0,3.0,76,0.00,,,0.00,Wunderground v.1.15,2013-02-17 12:55:00,
2013-02-17 08:00:00,25.8,19.3,30.07,North,10,0.0,3.0,76,0.00,,,0.00,Wunderground v.1.15,2013-02-17 13:00:00,
2013-02-17 08:05:00,25.9,19.1,30.07,North,11,0.0,3.0,75,0.00,,,0.00,Wunderground v.1.15,2013-02-17 13:05:00,
2013-02-17 08:15:00,26.5,18.7,30.08,NNE,17,0.0,3.0,72,0.00,,,0.00,Wunderground v.1.15,2013-02-17 13:15:00,
2013-02-17 08:20:00,27.4,19.2,30.08,NNE,17,0.0,3.0,71,0.00,,,0.00,Wunderground v.1.15,2013-02-17 13:20:00,
2013-02-17 08:25:00,27.9,19.0,30.08,NNW,339,0.0,3.0,69,0.00,,,0.00,Wunderground v.1.15,2013-02-17 13:25:00,
2013-02-17 08:30:00,28.3,19.4,30.08,NNW,338,0.0,3.0,69,0.00,,,0.00,Wunderground v.1.15,2013-02-17 13:30:00,
2013-02-17 08:35:00,28.5,18.9,30.09,SW,223,0.0,3.0,67,0.00,,,0.00,Wunderground v.1.15,2013-02-17 13:35:00,
2013-02-17 08:45:00,29.1,18.8,30.09,North,360,0.0,3.0,65,0.00,,,0.00,Wunderground v.1.15,2013-02-17 13:45:00,
2013-02-17 08:50:00,29.3,19.0,30.09,NNW,341,0.0,3.0,65,0.00,,,0.00,Wunderground v.1.15,2013-02-17 13:50:00,
2013-02-17 08:55:00,29.4,19.1,30.09,NNE,13,0.0,3.0,65,0.00,,,0.00,Wunderground v.1.15,2013-02-17 13:55:00,
2013-02-17 09:00:00,29.4,18.3,30.09,NNE,20,1.0,3.0,63,0.00,,,0.00,Wunderground v.1.15,2013-02-17 14:00:00,
2013-02-17 09:05:00,29.5,18.8,30.09,North,355,1.0,3.0,64,0.00,,,0.00,Wunderground v.1.15,2013-02-17 14:05:00,
2013-02-17 09:10:00,29.6,18.9,30.09,NNW,334,1.0,1.0,64,0.00,,,0.00,Wunderground v.1.15,2013-02-17 14:10:00,
2013-02-17 09:20:00,29.7,18.3,30.10,WNW,302,1.0,1.0,62,0.00,,,0.00,Wunderground v.1.15,2013-02-17 14:20:00,
2013-02-17 09:25:00,29.8,18.7,30.10,WSW,244,1.0,3.0,63,0.00,,,0.00,Wunderground v.1.15,2013-02-17 14:25:00,
2013-02-17 09:30:00,29.9,18.5,30.10,SSE,155,2.0,3.0,62,0.00,,,0.00,Wunderground v.1.15,2013-02-17 14:30:00,
2013-02-17 09:35:00,29.8,16.8,30.10,NNE,14,2.0,3.0,58,0.00,,,0.00,Wunderground v.1.15,2013-02-17 14:35:00,
2013-02-17 09:40:00,29.7,16.7,30.10,NW,304,3.0,3.0,58,0.00,,,0.00,Wunderground v.1.15,2013-02-17 14:40:00,
2013-02-17 09:45:00,29.8,16.8,30.11,WNW,292,2.0,3.0,58,0.00,,,0.00,Wunderground v.1.15,2013-02-17 14:45:00,
2013-02-17 09:50:00,29.8,18.0,30.11,NNE,17,1.0,3.0,61,0.00,,,0.00,Wunderground v.1.15,2013-02-17 14:50:00,
2013-02-17 09:55:00,29.7,15.5,30.11,NNW,345,2.0,3.0,55,0.00,,,0.00,Wunderground v.1.15,2013-02-17 14:55:00,
2013-02-17 10:00:00,29.8,16.0,30.12,NNE,30,1.0,4.0,56,0.00,,,0.00,Wunderground v.1.15,2013-02-17 15:00:00,
2013-02-17 10:05:00,29.8,14.7,30.12,NNW,332,2.0,4.0,53,0.00,,,0.00,Wunderground v.1.15,2013-02-17 15:05:00,
2013-02-17 10:10:00,29.9,14.8,30.12,North,9,2.0,2.0,53,0.00,,,0.00,Wunderground v.1.15,2013-02-17 15:10:00,
2013-02-17 10:20:00,30.2,13.3,30.12,NNE,12,1.0,7.0,49,0.00,,,0.00,Wunderground v.1.15,2013-02-17 15:20:00,
2013-02-17 10:25:00,30.3,12.9,30.12,North,9,2.0,7.0,48,0.00,,,0.00,Wunderground v.1.15,2013-02-17 15:25:00,
2013-02-17 10:30:00,30.4,13.0,30.12,NNW,348,2.0,7.0,48,0.00,,,0.00,Wunderground v.1.15,2013-02-17 15:30:00,
2013-02-17 10:35:00,30.3,11.5,30.13,North,355,3.0,7.0,45,0.00,,,0.00,Wunderground v.1.15,2013-02-17 15:35:00,
2013-02-17 10:40:00,30.6,12.2,30.12,NNW,344,3.0,3.0,46,0.00,,,0.00,Wunderground v.1.15,2013-02-17 15:40:00,
2013-02-17 10:45:00,30.6,12.2,30.12,NNE,19,2.0,4.0,46,0.00,,,0.00,Wunderground v.1.15,2013-02-17 15:45:00,
2013-02-17 10:50:00,30.7,11.8,30.12,NW,305,3.0,3.0,45,0.00,,,0.00,Wunderground v.1.15,2013-02-17 15:50:00,
2013-02-17 10:55:00,30.9,12.5,30.13,NNW,345,3.0,6.0,46,0.00,,,0.00,Wunderground v.1.15,2013-02-17 15:55:00,
2013-02-17 11:00:00,31.0,12.6,30.12,NW,321,2.0,2.0,46,0.00,,,0.00,Wunderground v.1.15,2013-02-17 16:00:00,
2013-02-17 11:05:00,31.2,11.8,30.13,East,87,3.0,3.0,44,0.00,,,0.00,Wunderground v.1.15,2013-02-17 16:05:00,
2013-02-17 11:10:00,31.1,12.7,30.13,NW,316,3.0,4.0,46,0.00,,,0.00,Wunderground v.1.15,2013-02-17 16:10:00,
2013-02-17 11:15:00,31.5,12.1,30.13,NNW,338,2.0,6.0,44,0.00,,,0.00,Wunderground v.1.15,2013-02-17 16:15:00,
2013-02-17 11:25:00,31.8,12.8,30.13,North,360,3.0,3.0,45,0.00,,,0.00,Wunderground v.1.15,2013-02-17 16:25:00,
2013-02-17 11:30:00,31.8,12.8,30.13,NE,53,3.0,3.0,45,0.00,,,0.00,Wunderground v.1.15,2013-02-17 16:30:00,
2013-02-17 11:35:00,32.2,12.7,30.13,North,5,3.0,3.0,44,0.00,,,0.00,Wunderground v.1.15,2013-02-17 16:35:00,
2013-02-17 11:40:00,32.4,12.9,30.13,NE,34,3.0,7.0,44,0.00,,,0.00,Wunderground v.1.15,2013-02-17 16:40:00,
2013-02-17 11:45:00,32.4,12.9,30.13,NNE,26,4.0,7.0,44,0.00,,,0.00,Wunderground v.1.15,2013-02-17 16:45:00,
2013-02-17 11:55:00,32.8,13.8,30.13,North,360,2.0,3.0,45,0.00,,,0.00,Wunderground v.1.15,2013-02-17 16:55:00,
2013-02-17 12:00:00,33.2,14.6,30.13,North,350,2.0,3.0,46,0.00,,,0.00,Wunderground v.1.15,2013-02-17 17:00:00,
2013-02-17 12:05:00,33.4,14.3,30.13,North,360,1.0,3.0,45,0.00,,,0.00,Wunderground v.1.15,2013-02-17 17:05:00,
2013-02-17 12:10:00,33.4,13.8,30.13,NNE,16,1.0,1.0,44,0.00,,,0.00,Wunderground v.1.15,2013-02-17 17:10:00,
2013-02-17 12:15:00,33.7,14.1,30.13,NNE,13,3.0,3.0,44,0.00,,,0.00,Wunderground v.1.15,2013-02-17 17:15:00,
2013-02-17 12:25:00,34.1,14.4,30.13,NNE,19,3.0,3.0,44,0.00,,,0.00,Wunderground v.1.15,2013-02-17 17:25:00,
2013-02-17 12:30:00,34.1,12.8,30.13,NW,309,3.0,3.0,41,0.00,,,0.00,Wunderground v.1.15,2013-02-17 17:30:00,
2013-02-17 12:35:00,34.2,14.5,30.12,NW,315,2.0,6.0,44,0.00,,,0.00,Wunderground v.1.15,2013-02-17 17:35:00,
2013-02-17 12:40:00,34.7,14.5,30.12,NW,324,2.0,2.0,43,0.00,,,0.00,Wunderground v.1.15,2013-02-17 17:40:00,
2013-02-17 12:45:00,35.0,15.8,30.12,NE,41,2.0,3.0,45,0.00,,,0.00,Wunderground v.1.15,2013-02-17 17:45:00,
2013-02-17 12:50:00,34.8,15.1,30.11,NW,323,2.0,2.0,44,0.00,,,0.00,Wunderground v.1.15,2013-02-17 17:50:00,
2013-02-17 13:00:00,35.1,14.3,30.12,North,355,2.0,2.0,42,0.00,,,0.00,Wunderground v.1.15,2013-02-17 18:00:00,
2013-02-17 13:05:00,35.6,14.7,30.11,WSW,241,2.0,3.0,42,0.00,,,0.00,Wunderground v.1.15,2013-02-17 18:05:00,
2013-02-17 13:10:00,36.0,15.6,30.11,North,351,1.0,6.0,43,0.00,,,0.00,Wunderground v.1.15,2013-02-17 18:10:00,
2013-02-17 13:15:00,35.9,16.1,30.11,NNW,346,2.0,6.0,44,0.00,,,0.00,Wunderground v.1.15,2013-02-17 18:15:00,
2013-02-17 13:20:00,35.9,15.0,30.11,North,360,2.0,3.0,42,0.00,,,0.00,Wunderground v.1.15,2013-02-17 18:20:00,
2013-02-17 13:30:00,36.2,15.3,30.10,NNW,348,1.0,1.0,42,0.00,,,0.00,Wunderground v.1.15,2013-02-17 18:30:00,
2013-02-17 13:35:00,36.4,15.5,30.10,NW,323,1.0,4.0,42,0.00,,,0.00,Wunderground v.1.15,2013-02-17 18:35:00,
2013-02-17 13:40:00,36.5,16.1,30.10,NNW,345,1.0,1.0,43,0.00,,,0.00,Wunderground v.1.15,2013-02-17 18:40:00,
2013-02-17 13:45:00,36.4,14.9,30.10,WNW,294,2.0,2.0,41,0.00,,,0.00,Wunderground v.1.15,2013-02-17 18:45:00,
2013-02-17 13:50:00,36.2,15.3,30.10,North,355,2.0,3.0,42,0.00,,,0.00,Wunderground v.1.15,2013-02-17 18:50:00,
2013-02-17 13:55:00,36.3,15.4,30.10,NNE,22,1.0,3.0,42,0.00,,,0.00,Wunderground v.1.15,2013-02-17 18:55:00,
2013-02-17 14:00:00,36.6,16.2,30.10,NNE,12,1.0,3.0,43,0.00,,,0.00,Wunderground v.1.15,2013-02-17 19:00:00,
2013-02-17 14:05:00,36.8,16.4,30.09,NNE,13,1.0,3.0,43,0.00,,,0.00,Wunderground v.1.15,2013-02-17 19:05:00,
2013-02-17 14:10:00,36.9,15.4,30.10,NNE,13,1.0,3.0,41,0.00,,,0.00,Wunderground v.1.15,2013-02-17 19:10:00,
2013-02-17 14:15:00,37.1,16.1,30.10,NNE,21,1.0,4.0,42,0.00,,,0.00,Wunderground v.1.15,2013-02-17 19:15:00,
2013-02-17 14:20:00,37.3,15.7,30.10,NE,37,1.0,1.0,41,0.00,,,0.00,Wunderground v.1.15,2013-02-17 19:20:00,
2013-02-17 14:25:00,37.4,16.4,30.10,ENE,76,1.0,3.0,42,0.00,,,0.00,Wunderground v.1.15,2013-02-17 19:25:00,
2013-02-17 14:35:00,37.9,17.9,30.09,WSW,250,1.0,3.0,44,0.00,,,0.00,Wunderground v.1.15,2013-02-17 19:35:00,
2013-02-17 14:40:00,38.3,16.6,30.09,SW,225,1.0,3.0,41,0.00,,,0.00,Wunderground v.1.15,2013-02-17 19:40:00,
2013-02-17 14:45:00,38.4,17.8,30.09,SW,227,1.0,3.0,43,0.00,,,0.00,Wunderground v.1.15,2013-02-17 19:45:00,
2013-02-17 14:50:00,38.5,16.2,30.09,West,277,1.0,3.0,40,0.00,,,0.00,Wunderground v.1.15,2013-02-17 19:50:00,
2013-02-17 14:55:00,38.3,15.5,30.09,NNW,347,1.0,3.0,39,0.00,,,0.00,Wunderground v.1.15,2013-02-17 19:55:00,
2013-02-17 15:05:00,38.3,16.6,30.09,North,351,1.0,3.0,41,0.00,,,0.00,Wunderground v.1.15,2013-02-17 20:05:00,
2013-02-17 15:10:00,38.4,16.7,30.09,NNE,32,1.0,1.0,41,0.00,,,0.00,Wunderground v.1.15,2013-02-17 20:10:00,
2013-02-17 15:15:00,38.5,15.7,30.09,NW,323,1.0,3.0,39,0.00,,,0.00,Wunderground v.1.15,2013-02-17 20:15:00,
2013-02-17 15:20:00,38.6,15.7,30.10,NNW,333,1.0,1.0,39,0.00,,,0.00,Wunderground v.1.15,2013-02-17 20:20:00,
2013-02-17 15:25:00,38.7,16.4,30.09,NNW,346,1.0,4.0,40,0.00,,,0.00,Wunderground v.1.15,2013-02-17 20:25:00,
2013-02-17 15:35:00,38.8,17.1,30.09,North,350,1.0,3.0,41,0.00,,,0.00,Wunderground v.1.15,2013-02-17 20:35:00,
2013-02-17 15:40:00,38.8,15.3,30.10,ENE,69,1.0,1.0,38,0.00,,,0.00,Wunderground v.1.15,2013-02-17 20:40:00,
2013-02-17 15:50:00,38.9,16.0,30.10,WNW,296,1.0,3.0,39,0.00,,,0.00,Wunderground v.1.15,2013-02-17 20:50:00,
2013-02-17 15:55:00,38.8,15.9,30.10,NW,317,1.0,3.0,39,0.00,,,0.00,Wunderground v.1.15,2013-02-17 20:55:00,
2013-02-17 16:05:00,38.8,15.3,30.11,ENE,65,1.0,3.0,38,0.00,,,0.00,Wunderground v.1.15,2013-02-17 21:05:00,
2013-02-17 16:10:00,38.8,14.7,30.11,North,355,2.0,3.0,37,0.00,,,0.00,Wunderground v.1.15,2013-02-17 21:10:00,
2013-02-17 16:15:00,38.9,14.8,30.11,North,360,2.0,3.0,37,0.00,,,0.00,Wunderground v.1.15,2013-02-17 21:15:00,
2013-02-17 16:20:00,38.8,14.7,30.11,NW,315,2.0,2.0,37,0.00,,,0.00,Wunderground v.1.15,2013-02-17 21:20:00,
2013-02-17 16:25:00,38.8,14.7,30.11,NNE,25,1.0,3.0,37,0.00,,,0.00,Wunderground v.1.15,2013-02-17 21:25:00,
2013-02-17 16:30:00,38.8,14.7,30.11,NNE,20,1.0,1.0,37,0.00,,,0.00,Wunderground v.1.15,2013-02-17 21:30:00,
2013-02-17 16:35:00,38.7,14.6,30.11,South,172,1.0,3.0,37,0.00,,,0.00,Wunderground v.1.15,2013-02-17 21:35:00,
2013-02-17 16:40:00,38.7,15.2,30.11,ENE,67,1.0,3.0,38,0.00,,,0.00,Wunderground v.1.15,2013-02-17 21:40:00,
2013-02-17 16:45:00,38.7,15.2,30.11,NNE,18,0.0,3.0,38,0.00,,,0.00,Wunderground v.1.15,2013-02-17 21:45:00,
2013-02-17 16:55:00,38.7,15.2,30.12,North,9,0.0,3.0,38,0.00,,,0.00,Wunderground v.1.15,2013-02-17 21:55:00,
2013-02-17 17:00:00,38.6,15.1,30.12,North,360,1.0,1.0,38,0.00,,,0.00,Wunderground v.1.15,2013-02-17 22:00:00,
2013-02-17 17:10:00,38.5,15.1,30.12,NNW,346,0.0,3.0,38,0.00,,,0.00,Wunderground v.1.15,2013-02-17 22:10:00,
2013-02-17 17:15:00,38.5,15.7,30.13,WNW,303,0.0,3.0,39,0.00,,,0.00,Wunderground v.1.15,2013-02-17 22:15:00,
2013-02-17 17:20:00,38.4,15.6,30.13,NNW,330,0.0,3.0,39,0.00,,,0.00,Wunderground v.1.15,2013-02-17 22:20:00,
2013-02-17 17:25:00,38.3,15.5,30.13,NNW,330,0.0,3.0,39,0.00,,,0.00,Wunderground v.1.15,2013-02-17 22:25:00,
2013-02-17 17:30:00,38.2,15.4,30.13,North,360,0.0,3.0,39,0.00,,,0.00,Wunderground v.1.15,2013-02-17 22:30:00,
2013-02-17 17:40:00,37.9,15.1,30.14,NNW,336,0.0,3.0,39,0.00,,,0.00,Wunderground v.1.15,2013-02-17 22:40:00,
2013-02-17 17:45:00,37.8,15.0,30.14,North,360,0.0,3.0,39,0.00,,,0.00,Wunderground v.1.15,2013-02-17 22:45:00,
2013-02-17 17:50:00,37.7,14.9,30.14,North,10,0.0,3.0,39,0.00,,,0.00,Wunderground v.1.15,2013-02-17 22:50:00,
2013-02-17 17:55:00,37.6,14.8,30.14,NW,313,0.0,3.0,39,0.00,,,0.00,Wunderground v.1.15,2013-02-17 22:55:00,
2013-02-17 18:00:00,37.4,14.7,30.14,NW,322,0.0,3.0,39,0.00,,,0.00,Wunderground v.1.15,2013-02-17 23:00:00,
2013-02-17 18:10:00,37.3,15.7,30.15,NW,322,0.0,3.0,41,0.00,,,0.00,Wunderground v.1.15,2013-02-17 23:10:00,
2013-02-17 18:15:00,37.1,15.5,30.15,NW,322,0.0,3.0,41,0.00,,,0.00,Wunderground v.1.15,2013-02-17 23:15:00,
2013-02-17 18:20:00,36.9,15.9,30.15,NW,322,0.0,3.0,42,0.00,,,0.00,Wunderground v.1.15,2013-02-17 23:20:00,
2013-02-17 18:25:00,36.6,15.6,30.15,NW,322,0.0,3.0,42,0.00,,,0.00,Wunderground v.1.15,2013-02-17 23:25:00,
2013-02-17 18:30:00,36.5,16.1,30.16,NW,322,0.0,3.0,43,0.00,,,0.00,Wunderground v.1.15,2013-02-17 23:30:00,
2013-02-17 18:35:00,36.3,15.9,30.16,NW,322,0.0,3.0,43,0.00,,,0.00,Wunderground v.1.15,2013-02-17 23:35:00,
2013-02-17 18:45:00,35.9,17.1,30.16,NW,322,0.0,3.0,46,0.00,,,0.00,Wunderground v.1.15,2013-02-17 23:45:00,
2013-02-17 18:50:00,35.7,17.9,30.16,NW,322,0.0,3.0,48,0.00,,,0.00,Wunderground v.1.15,2013-02-17 23:50:00,
2013-02-17 18:55:00,35.3,18.0,30.17,NW,322,0.0,3.0,49,0.00,,,0.00,Wunderground v.1.15,2013-02-17 23:55:00,
2013-02-17 19:00:00,35.1,18.8,30.17,NW,322,0.0,3.0,51,0.00,,,0.00,Wunderground v.1.15,2013-02-18 00:00:00,
2013-02-17 19:05:00,34.7,17.9,30.17,NW,322,0.0,3.0,50,0.00,,,0.00,Wunderground v.1.15,2013-02-18 00:05:00,
2013-02-17 19:15:00,34.2,17.0,30.18,NW,322,0.0,3.0,49,0.00,,,0.00,Wunderground v.1.15,2013-02-18 00:15:00,
2013-02-17 19:21:00,33.9,16.7,30.18,NW,322,0.0,0.0,49,0.00,,,0.00,Wunderground v.1.15,2013-02-18 00:21:00,
2013-02-17 19:30:00,33.4,17.6,30.18,NW,322,0.0,0.0,52,0.00,,,0.00,Wunderground v.1.15,2013-02-18 00:30:00,
2013-02-17 19:35:00,33.2,18.3,30.18,NW,322,0.0,0.0,54,0.00,,,0.00,Wunderground v.1.15,2013-02-18 00:35:00,
2013-02-17 19:40:00,32.9,16.3,30.18,NW,322,0.0,0.0,50,0.00,,,0.00,Wunderground v.1.15,2013-02-18 00:40:00,
2013-02-17 19:45:00,32.8,15.7,30.18,NW,322,0.0,0.0,49,0.00,,,0.00,Wunderground v.1.15,2013-02-18 00:45:00,
2013-02-17 19:50:00,32.8,15.2,30.18,NW,322,0.0,0.0,48,0.00,,,0.00,Wunderground v.1.15,2013-02-18 00:50:00,
2013-02-17 20:00:00,33.0,14.9,30.18,NW,322,0.0,0.0,47,0.00,,,0.00,Wunderground v.1.15,2013-02-18 01:00:00,
2013-02-17 20:05:00,33.1,17.4,30.19,NW,304,0.0,0.0,52,0.00,,,0.00,Wunderground v.1.15,2013-02-18 01:05:00,
2013-02-17 20:10:00,33.0,18.1,30.19,NW,304,0.0,0.0,54,0.00,,,0.00,Wunderground v.1.15,2013-02-18 01:10:00,
2013-02-17 20:15:00,32.9,18.1,30.19,NW,304,0.0,0.0,54,0.00,,,0.00,Wunderground v.1.15,2013-02-18 01:15:00,
2013-02-17 20:20:00,32.8,18.0,30.20,NW,304,0.0,0.0,54,0.00,,,0.00,Wunderground v.1.15,2013-02-18 01:20:00,
2013-02-17 20:30:00,32.4,17.2,30.20,NW,304,0.0,0.0,53,0.00,,,0.00,Wunderground v.1.15,2013-02-18 01:30:00,
2013-02-17 20:40:00,32.0,17.6,30.20,NW,304,0.0,0.0,55,0.00,,,0.00,Wunderground v.1.15,2013-02-18 01:40:00,
2013-02-17 20:45:00,31.7,17.4,30.21,NW,304,0.0,0.0,55,0.00,,,0.00,Wunderground v.1.15,2013-02-18 01:45:00,
2013-02-17 20:50:00,31.5,17.2,30.21,NW,304,0.0,0.0,55,0.00,,,0.00,Wunderground v.1.15,2013-02-18 01:50:00,
2013-02-17 20:55:00,31.4,16.2,30.21,NW,304,0.0,0.0,53,0.00,,,0.00,Wunderground v.1.15,2013-02-18 01:55:00,
2013-02-17 21:00:00,31.2,16.0,30.21,NW,304,0.0,0.0,53,0.00,,,0.00,Wunderground v.1.15,2013-02-18 02:00:00,
2013-02-17 21:10:00,31.0,17.1,30.22,NW,304,0.0,0.0,56,0.00,,,0.00,Wunderground v.1.15,2013-02-18 02:10:00,
2013-02-17 21:15:00,30.9,16.6,30.22,NW,304,0.0,0.0,55,0.00,,,0.00,Wunderground v.1.15,2013-02-18 02:15:00,
2013-02-17 21:20:00,30.8,16.5,30.22,NW,304,0.0,0.0,55,0.00,,,0.00,Wunderground v.1.15,2013-02-18 02:20:00,
2013-02-17 21:25:00,30.7,16.8,30.22,NW,304,0.0,0.0,56,0.00,,,0.00,Wunderground v.1.15,2013-02-18 02:25:00,
2013-02-17 21:30:00,30.6,18.0,30.23,NW,304,0.0,0.0,59,0.00,,,0.00,Wunderground v.1.15,2013-02-18 02:30:00,
2013-02-17 21:40:00,30.4,18.2,30.23,NW,304,0.0,0.0,60,0.00,,,0.00,Wunderground v.1.15,2013-02-18 02:40:00,
2013-02-17 21:45:00,30.1,18.6,30.23,NW,304,0.0,0.0,62,0.00,,,0.00,Wunderground v.1.15,2013-02-18 02:45:00,
2013-02-17 21:50:00,29.8,18.4,30.24,NW,309,0.0,0.0,62,0.00,,,0.00,Wunderground v.1.15,2013-02-18 02:50:00,
2013-02-17 21:55:00,29.6,17.8,30.24,NW,309,0.0,0.0,61,0.00,,,0.00,Wunderground v.1.15,2013-02-18 02:55:00,
2013-02-17 22:00:00,29.4,17.2,30.24,NW,309,0.0,0.0,60,0.00,,,0.00,Wunderground v.1.15,2013-02-18 03:00:00,
2013-02-17 22:05:00,29.3,17.5,30.24,NW,309,0.0,0.0,61,0.00,,,0.00,Wunderground v.1.15,2013-02-18 03:05:00,
2013-02-17 22:15:00,29.2,17.8,30.24,NW,309,0.0,0.0,62,0.00,,,0.00,Wunderground v.1.15,2013-02-18 03:15:00,
2013-02-17 22:20:00,29.0,17.2,30.25,NW,309,0.0,0.0,61,0.00,,,0.00,Wunderground v.1.15,2013-02-18 03:20:00,
2013-02-17 22:25:00,29.0,17.6,30.25,NW,309,0.0,0.0,62,0.00,,,0.00,Wunderground v.1.15,2013-02-18 03:25:00,
2013-02-17 22:30:00,28.9,17.5,30.25,NW,309,0.0,0.0,62,0.00,,,0.00,Wunderground v.1.15,2013-02-18 03:30:00,
2013-02-17 22:35:00,28.8,17.8,30.25,NW,309,0.0,0.0,63,0.00,,,0.00,Wunderground v.1.15,2013-02-18 03:35:00,
2013-02-17 22:45:00,28.6,18.3,30.25,NW,309,0.0,0.0,65,0.00,,,0.00,Wunderground v.1.15,2013-02-18 03:45:00,
2013-02-17 22:50:00,28.4,18.1,30.25,NW,309,0.0,0.0,65,0.00,,,0.00,Wunderground v.1.15,2013-02-18 03:50:00,
2013-02-17 22:55:00,28.4,18.5,30.26,NW,309,0.0,0.0,66,0.00,,,0.00,Wunderground v.1.15,2013-02-18 03:55:00,
2013-02-17 23:00:00,28.2,17.9,30.26,NW,309,0.0,0.0,65,0.00,,,0.00,Wunderground v.1.15,2013-02-18 04:00:00,
2013-02-17 23:05:00,28.1,17.8,30.26,NW,309,0.0,0.0,65,0.00,,,0.00,Wunderground v.1.15,2013-02-18 04:05:00,
2013-02-17 23:15:00,27.9,18.0,30.26,NW,309,0.0,0.0,66,0.00,,,0.00,Wunderground v.1.15,2013-02-18 04:15:00,
2013-02-17 23:20:00,27.8,17.9,30.26,NW,309,0.0,0.0,66,0.00,,,0.00,Wunderground v.1.15,2013-02-18 04:20:00,
2013-02-17 23:25:00,27.7,18.2,30.26,NW,309,0.0,0.0,67,0.00,,,0.00,Wunderground v.1.15,2013-02-18 04:25:00,
2013-02-17 23:30:00,27.6,18.4,30.27,NW,309,0.0,0.0,68,0.00,,,0.00,Wunderground v.1.15,2013-02-18 04:30:00,
2013-02-17 23:35:00,27.5,18.3,30.27,NW,309,0.0,0.0,68,0.00,,,0.00,Wunderground v.1.15,2013-02-18 04:35:00,
2013-02-17 23:40:00,27.4,18.2,30.27,NW,309,0.0,0.0,68,0.00,,,0.00,Wunderground v.1.15,2013-02-18 04:40:00,
2013-02-17 23:45:00,27.4,18.6,30.27,NW,309,0.0,0.0,69,0.00,,,0.00,Wunderground v.1.15,2013-02-18 04:45:00,
2013-02-17 23:50:00,27.3,18.5,30.27,NW,309,0.0,0.0,69,0.00,,,0.00,Wunderground v.1.15,2013-02-18 04:50:00,
2013-02-17 23:55:00,27.3,18.8,30.28,NW,309,0.0,0.0,70,0.00,,,0.00,Wunderground v.1.15,2013-02-18 04:55:00,